Year,Month,Day,Hour,Minute,Value (Times are PST for temperature in C)
2021,06,25,00,00,19.60
2021,06,25,00,01,19.70
2021,06,25,00,02,19.60
2021,06,25,00,03,19.60
2021,06,25,00,04,19.60
2021,06,25,00,05,19.60
2021,06,25,00,06,19.60
2021,06,25,00,07,19.60
2021,06,25,00,08,19.60
2021,06,25,00,09,19.60
2021,06,25,00,10,19.60
2021,06,25,00,11,19.60
2021,06,25,00,12,19.60
2021,06,25,00,13,19.60
2021,06,25,00,14,19.60
2021,06,25,00,15,19.60
2021,06,25,00,16,19.60
2021,06,25,00,17,19.60
2021,06,25,00,18,19.60
2021,06,25,00,19,19.60
2021,06,25,00,20,19.60
2021,06,25,00,21,19.60
2021,06,25,00,22,19.60
2021,06,25,00,23,19.60
2021,06,25,00,24,19.60
2021,06,25,00,25,19.60
2021,06,25,00,26,19.60
2021,06,25,00,27,19.60
2021,06,25,00,28,19.60
2021,06,25,00,29,19.70
2021,06,25,00,30,19.70
2021,06,25,00,31,19.80
2021,06,25,00,32,19.90
2021,06,25,00,33,20.00
2021,06,25,00,34,20.10
2021,06,25,00,35,20.30
2021,06,25,00,36,20.40
2021,06,25,00,37,20.50
2021,06,25,00,38,20.60
2021,06,25,00,39,20.80
2021,06,25,00,40,20.90
2021,06,25,00,41,21.00
2021,06,25,00,42,21.10
2021,06,25,00,43,21.20
2021,06,25,00,44,21.30
2021,06,25,00,45,21.40
2021,06,25,00,46,21.50
2021,06,25,00,47,21.60
2021,06,25,00,48,21.60
2021,06,25,00,49,21.70
2021,06,25,00,50,21.70
2021,06,25,00,51,21.70
2021,06,25,00,52,21.80
2021,06,25,00,53,21.80
2021,06,25,00,54,21.80
2021,06,25,00,55,21.80
2021,06,25,00,56,21.80
2021,06,25,00,57,21.80
2021,06,25,00,58,21.70
2021,06,25,00,59,21.70
2021,06,25,01,00,21.70
2021,06,25,01,01,21.70
2021,06,25,01,02,21.70
2021,06,25,01,03,21.70
2021,06,25,01,04,21.70
2021,06,25,01,05,21.70
2021,06,25,01,06,21.70
2021,06,25,01,07,21.70
2021,06,25,01,08,21.70
2021,06,25,01,09,21.70
2021,06,25,01,10,21.70
2021,06,25,01,11,21.70
2021,06,25,01,12,21.60
2021,06,25,01,13,21.60
2021,06,25,01,14,21.60
2021,06,25,01,15,21.60
2021,06,25,01,16,21.60
2021,06,25,01,17,21.70
2021,06,25,01,18,21.70
2021,06,25,01,19,21.70
2021,06,25,01,20,21.70
2021,06,25,01,21,21.70
2021,06,25,01,22,21.70
2021,06,25,01,23,21.70
2021,06,25,01,24,21.70
2021,06,25,01,25,21.70
2021,06,25,01,26,21.60
2021,06,25,01,27,21.60
2021,06,25,01,28,21.60
2021,06,25,01,29,21.60
2021,06,25,01,30,21.50
2021,06,25,01,31,21.50
2021,06,25,01,32,21.50
2021,06,25,01,33,21.40
2021,06,25,01,34,21.40
2021,06,25,01,35,21.40
2021,06,25,01,36,21.40
2021,06,25,01,37,21.40
2021,06,25,01,38,21.30
2021,06,25,01,39,21.30
2021,06,25,01,40,21.30
2021,06,25,01,41,21.30
2021,06,25,01,42,21.30
2021,06,25,01,43,21.30
2021,06,25,01,44,21.30
2021,06,25,01,45,21.30
2021,06,25,01,46,21.30
2021,06,25,01,47,21.20
2021,06,25,01,48,21.20
2021,06,25,01,49,21.20
2021,06,25,01,50,21.30
2021,06,25,01,51,21.30
2021,06,25,01,52,21.30
2021,06,25,01,53,21.30
2021,06,25,01,54,21.30
2021,06,25,01,55,21.30
2021,06,25,01,56,21.30
2021,06,25,01,57,21.20
2021,06,25,01,58,21.20
2021,06,25,01,59,21.20
2021,06,25,02,00,21.20
2021,06,25,02,01,21.20
2021,06,25,02,02,21.10
2021,06,25,02,03,21.10
2021,06,25,02,04,21.10
2021,06,25,02,05,21.10
2021,06,25,02,06,21.00
2021,06,25,02,07,21.00
2021,06,25,02,08,20.90
2021,06,25,02,09,20.90
2021,06,25,02,10,20.90
2021,06,25,02,11,20.90
2021,06,25,02,12,20.90
2021,06,25,02,13,20.90
2021,06,25,02,14,20.90
2021,06,25,02,15,20.90
2021,06,25,02,16,20.90
2021,06,25,02,17,20.90
2021,06,25,02,18,20.90
2021,06,25,02,19,20.80
2021,06,25,02,20,20.90
2021,06,25,02,21,20.80
2021,06,25,02,22,20.80
2021,06,25,02,23,20.80
2021,06,25,02,24,20.80
2021,06,25,02,25,20.70
2021,06,25,02,26,20.70
2021,06,25,02,27,20.70
2021,06,25,02,28,20.70
2021,06,25,02,29,20.70
2021,06,25,02,30,20.60
2021,06,25,02,31,20.60
2021,06,25,02,32,20.60
2021,06,25,02,33,20.60
2021,06,25,02,34,20.60
2021,06,25,02,35,20.60
2021,06,25,02,36,20.60
2021,06,25,02,37,20.60
2021,06,25,02,38,20.70
2021,06,25,02,39,20.70
2021,06,25,02,40,20.70
2021,06,25,02,41,20.80
2021,06,25,02,42,20.80
2021,06,25,02,43,20.90
2021,06,25,02,44,20.90
2021,06,25,02,45,20.90
2021,06,25,02,46,20.90
2021,06,25,02,47,21.00
2021,06,25,02,48,21.00
2021,06,25,02,49,21.00
2021,06,25,02,50,21.10
2021,06,25,02,51,21.10
2021,06,25,02,52,21.00
2021,06,25,02,53,21.00
2021,06,25,02,54,21.00
2021,06,25,02,55,20.90
2021,06,25,02,56,20.90
2021,06,25,02,57,20.90
2021,06,25,02,58,20.80
2021,06,25,02,59,20.80
2021,06,25,03,00,20.80
2021,06,25,03,01,20.80
2021,06,25,03,02,20.70
2021,06,25,03,03,20.70
2021,06,25,03,04,20.70
2021,06,25,03,05,20.70
2021,06,25,03,06,20.70
2021,06,25,03,07,20.70
2021,06,25,03,08,20.70
2021,06,25,03,09,20.70
2021,06,25,03,10,20.70
2021,06,25,03,11,20.70
2021,06,25,03,12,20.70
2021,06,25,03,13,20.70
2021,06,25,03,14,20.70
2021,06,25,03,15,20.70
2021,06,25,03,16,20.70
2021,06,25,03,17,20.70
2021,06,25,03,18,20.70
2021,06,25,03,19,20.70
2021,06,25,03,20,20.70
2021,06,25,03,21,20.70
2021,06,25,03,22,20.70
2021,06,25,03,23,20.60
2021,06,25,03,24,20.60
2021,06,25,03,25,20.60
2021,06,25,03,26,20.60
2021,06,25,03,27,20.60
2021,06,25,03,28,20.60
2021,06,25,03,29,20.60
2021,06,25,03,30,20.60
2021,06,25,03,31,20.60
2021,06,25,03,32,20.60
2021,06,25,03,33,20.60
2021,06,25,03,34,20.50
2021,06,25,03,35,20.50
2021,06,25,03,36,20.50
2021,06,25,03,37,20.50
2021,06,25,03,38,20.50
2021,06,25,03,39,20.50
2021,06,25,03,40,20.50
2021,06,25,03,41,20.40
2021,06,25,03,42,20.40
2021,06,25,03,43,20.40
2021,06,25,03,44,20.40
2021,06,25,03,45,20.40
2021,06,25,03,46,20.30
2021,06,25,03,47,20.30
2021,06,25,03,48,20.30
2021,06,25,03,49,20.30
2021,06,25,03,50,20.20
2021,06,25,03,51,20.20
2021,06,25,03,52,20.20
2021,06,25,03,53,20.20
2021,06,25,03,54,20.20
2021,06,25,03,55,20.20
2021,06,25,03,56,20.20
2021,06,25,03,57,20.20
2021,06,25,03,58,20.20
2021,06,25,03,59,20.20
2021,06,25,04,00,20.20
2021,06,25,04,01,20.20
2021,06,25,04,02,20.20
2021,06,25,04,03,20.20
2021,06,25,04,04,20.10
2021,06,25,04,05,20.10
2021,06,25,04,06,20.10
2021,06,25,04,07,20.00
2021,06,25,04,08,20.00
2021,06,25,04,09,20.00
2021,06,25,04,10,20.00
2021,06,25,04,11,19.90
2021,06,25,04,12,19.90
2021,06,25,04,13,19.90
2021,06,25,04,14,19.90
2021,06,25,04,15,19.80
2021,06,25,04,16,19.80
2021,06,25,04,17,19.80
2021,06,25,04,18,19.80
2021,06,25,04,19,19.90
2021,06,25,04,20,19.90
2021,06,25,04,21,19.90
2021,06,25,04,22,19.90
2021,06,25,04,23,19.90
2021,06,25,04,24,19.90
2021,06,25,04,25,19.90
2021,06,25,04,26,19.90
2021,06,25,04,27,19.90
2021,06,25,04,28,20.00
2021,06,25,04,29,19.90
2021,06,25,04,30,20.00
2021,06,25,04,31,20.00
2021,06,25,04,32,20.00
2021,06,25,04,33,20.00
2021,06,25,04,34,20.00
2021,06,25,04,35,20.00
2021,06,25,04,36,20.00
2021,06,25,04,37,20.00
2021,06,25,04,38,20.00
2021,06,25,04,39,20.00
2021,06,25,04,40,20.00
2021,06,25,04,41,20.00
2021,06,25,04,42,20.00
2021,06,25,04,43,20.00
2021,06,25,04,44,20.00
2021,06,25,04,45,20.00
2021,06,25,04,46,20.00
2021,06,25,04,47,19.90
2021,06,25,04,48,19.90
2021,06,25,04,49,19.90
2021,06,25,04,50,19.90
2021,06,25,04,51,19.80
2021,06,25,04,52,19.80
2021,06,25,04,53,19.80
2021,06,25,04,54,19.80
2021,06,25,04,55,19.70
2021,06,25,04,56,19.70
2021,06,25,04,57,19.70
2021,06,25,04,58,19.60
2021,06,25,04,59,19.60
2021,06,25,05,00,19.60
2021,06,25,05,01,19.50
2021,06,25,05,02,19.50
2021,06,25,05,03,19.50
2021,06,25,05,04,19.40
2021,06,25,05,05,19.40
2021,06,25,05,06,19.40
2021,06,25,05,07,19.30
2021,06,25,05,08,19.30
2021,06,25,05,09,19.30
2021,06,25,05,10,19.20
2021,06,25,05,11,19.20
2021,06,25,05,12,19.20
2021,06,25,05,13,19.20
2021,06,25,05,14,19.20
2021,06,25,05,15,19.20
2021,06,25,05,16,19.20
2021,06,25,05,17,19.20
2021,06,25,05,18,19.20
2021,06,25,05,19,19.10
2021,06,25,05,20,19.10
2021,06,25,05,21,19.10
2021,06,25,05,22,19.10
2021,06,25,05,23,19.10
2021,06,25,05,24,19.10
2021,06,25,05,25,19.10
2021,06,25,05,26,19.10
2021,06,25,05,27,19.00
2021,06,25,05,28,19.00
2021,06,25,05,29,19.00
2021,06,25,05,30,19.00
2021,06,25,05,31,19.00
2021,06,25,05,32,19.00
2021,06,25,05,33,19.00
2021,06,25,05,34,19.00
2021,06,25,05,35,19.00
2021,06,25,05,36,19.00
2021,06,25,05,37,19.10
2021,06,25,05,38,19.10
2021,06,25,05,39,19.20
2021,06,25,05,40,19.20
2021,06,25,05,41,19.20
2021,06,25,05,42,19.20
2021,06,25,05,43,19.30
2021,06,25,05,44,19.30
2021,06,25,05,45,19.30
2021,06,25,05,46,19.30
2021,06,25,05,47,19.30
2021,06,25,05,48,19.30
2021,06,25,05,49,19.30
2021,06,25,05,50,19.30
2021,06,25,05,51,19.30
2021,06,25,05,52,19.30
2021,06,25,05,53,19.30
2021,06,25,05,54,19.30
2021,06,25,05,55,19.30
2021,06,25,05,56,19.30
2021,06,25,05,57,19.30
2021,06,25,05,58,19.30
2021,06,25,05,59,19.20
2021,06,25,06,00,19.20
2021,06,25,06,01,19.20
2021,06,25,06,02,19.20
2021,06,25,06,03,19.20
2021,06,25,06,04,19.20
2021,06,25,06,05,19.10
2021,06,25,06,06,19.10
2021,06,25,06,07,19.10
2021,06,25,06,08,19.10
2021,06,25,06,09,19.10
2021,06,25,06,10,19.10
2021,06,25,06,11,19.10
2021,06,25,06,12,19.10
2021,06,25,06,13,19.20
2021,06,25,06,14,19.20
2021,06,25,06,15,19.20
2021,06,25,06,16,19.10
2021,06,25,06,17,19.20
2021,06,25,06,18,19.10
2021,06,25,06,19,19.10
2021,06,25,06,20,19.10
2021,06,25,06,21,19.10
2021,06,25,06,22,19.10
2021,06,25,06,23,19.10
2021,06,25,06,24,19.10
2021,06,25,06,25,19.10
2021,06,25,06,26,19.10
2021,06,25,06,27,19.10
2021,06,25,06,28,19.10
2021,06,25,06,29,19.10
2021,06,25,06,30,19.10
2021,06,25,06,31,19.10
2021,06,25,06,32,19.10
2021,06,25,06,33,19.10
2021,06,25,06,34,19.10
2021,06,25,06,35,19.20
2021,06,25,06,36,19.20
2021,06,25,06,37,19.20
2021,06,25,06,38,19.20
2021,06,25,06,39,19.20
2021,06,25,06,40,19.20
2021,06,25,06,41,19.30
2021,06,25,06,42,19.30
2021,06,25,06,43,19.30
2021,06,25,06,44,19.30
2021,06,25,06,45,19.30
2021,06,25,06,46,19.30
2021,06,25,06,47,19.30
2021,06,25,06,48,19.30
2021,06,25,06,49,19.40
2021,06,25,06,50,19.40
2021,06,25,06,51,19.40
2021,06,25,06,52,19.50
2021,06,25,06,53,19.60
2021,06,25,06,54,19.60
2021,06,25,06,55,19.60
2021,06,25,06,56,19.60
2021,06,25,06,57,19.70
2021,06,25,06,58,19.80
2021,06,25,06,59,19.80
2021,06,25,07,00,19.80
2021,06,25,07,01,19.90
2021,06,25,07,02,19.90
2021,06,25,07,03,20.00
2021,06,25,07,04,20.00
2021,06,25,07,05,20.00
2021,06,25,07,06,20.00
2021,06,25,07,07,20.00
2021,06,25,07,08,20.10
2021,06,25,07,09,20.10
2021,06,25,07,10,20.10
2021,06,25,07,11,20.10
2021,06,25,07,12,20.10
2021,06,25,07,13,20.10
2021,06,25,07,14,20.10
2021,06,25,07,15,20.10
2021,06,25,07,16,20.10
2021,06,25,07,17,20.10
2021,06,25,07,18,20.10
2021,06,25,07,19,20.20
2021,06,25,07,20,20.20
2021,06,25,07,21,20.20
2021,06,25,07,22,20.20
2021,06,25,07,23,20.20
2021,06,25,07,24,20.20
2021,06,25,07,25,20.30
2021,06,25,07,26,20.30
2021,06,25,07,27,20.30
2021,06,25,07,28,20.30
2021,06,25,07,29,20.40
2021,06,25,07,30,20.40
2021,06,25,07,31,20.40
2021,06,25,07,32,20.40
2021,06,25,07,33,20.40
2021,06,25,07,34,20.40
2021,06,25,07,35,20.40
2021,06,25,07,36,20.40
2021,06,25,07,37,20.50
2021,06,25,07,38,20.50
2021,06,25,07,39,20.40
2021,06,25,07,40,20.50
2021,06,25,07,41,20.40
2021,06,25,07,42,20.40
2021,06,25,07,43,20.50
2021,06,25,07,44,20.50
2021,06,25,07,45,20.50
2021,06,25,07,46,20.50
2021,06,25,07,47,20.60
2021,06,25,07,48,20.60
2021,06,25,07,49,20.60
2021,06,25,07,50,20.70
2021,06,25,07,51,20.70
2021,06,25,07,52,20.80
2021,06,25,07,53,20.80
2021,06,25,07,54,20.80
2021,06,25,07,55,20.80
2021,06,25,07,56,20.90
2021,06,25,07,57,20.90
2021,06,25,07,58,20.90
2021,06,25,07,59,20.90
2021,06,25,08,00,20.90
2021,06,25,08,01,21.00
2021,06,25,08,02,21.00
2021,06,25,08,03,21.00
2021,06,25,08,04,21.00
2021,06,25,08,05,21.00
2021,06,25,08,06,21.10
2021,06,25,08,07,21.10
2021,06,25,08,08,21.10
2021,06,25,08,09,21.10
2021,06,25,08,10,21.10
2021,06,25,08,11,21.10
2021,06,25,08,12,21.10
2021,06,25,08,13,21.10
2021,06,25,08,14,21.10
2021,06,25,08,15,21.10
2021,06,25,08,16,21.10
2021,06,25,08,17,21.10
2021,06,25,08,18,21.10
2021,06,25,08,19,21.20
2021,06,25,08,20,21.20
2021,06,25,08,21,21.20
2021,06,25,08,22,21.20
2021,06,25,08,23,21.20
2021,06,25,08,24,21.20
2021,06,25,08,25,21.30
2021,06,25,08,26,21.30
2021,06,25,08,27,21.40
2021,06,25,08,28,21.40
2021,06,25,08,29,21.50
2021,06,25,08,30,21.50
2021,06,25,08,31,21.60
2021,06,25,08,32,21.60
2021,06,25,08,33,21.60
2021,06,25,08,34,21.60
2021,06,25,08,35,21.70
2021,06,25,08,36,21.70
2021,06,25,08,37,21.70
2021,06,25,08,38,21.70
2021,06,25,08,39,21.70
2021,06,25,08,40,21.70
2021,06,25,08,41,21.70
2021,06,25,08,42,21.70
2021,06,25,08,43,21.70
2021,06,25,08,44,21.70
2021,06,25,08,45,21.70
2021,06,25,08,46,21.70
2021,06,25,08,47,21.70
2021,06,25,08,48,21.70
2021,06,25,08,49,21.70
2021,06,25,08,50,21.80
2021,06,25,08,51,21.80
2021,06,25,08,52,21.80
2021,06,25,08,53,21.80
2021,06,25,08,54,21.80
2021,06,25,08,55,21.80
2021,06,25,08,56,21.80
2021,06,25,08,57,21.80
2021,06,25,08,58,21.80
2021,06,25,08,59,21.90
2021,06,25,09,00,21.90
2021,06,25,09,01,21.90
2021,06,25,09,02,21.90
2021,06,25,09,03,22.00
2021,06,25,09,04,22.00
2021,06,25,09,05,22.00
2021,06,25,09,06,22.10
2021,06,25,09,07,22.10
2021,06,25,09,08,22.10
2021,06,25,09,09,22.10
2021,06,25,09,10,22.10
2021,06,25,09,11,22.10
2021,06,25,09,12,22.10
2021,06,25,09,13,22.10
2021,06,25,09,14,22.10
2021,06,25,09,15,22.10
2021,06,25,09,16,22.20
2021,06,25,09,17,22.20
2021,06,25,09,18,22.20
2021,06,25,09,19,22.20
2021,06,25,09,20,22.20
2021,06,25,09,21,22.20
2021,06,25,09,22,22.20
2021,06,25,09,23,22.20
2021,06,25,09,24,22.20
2021,06,25,09,25,22.30
2021,06,25,09,26,22.30
2021,06,25,09,27,22.20
2021,06,25,09,28,22.20
2021,06,25,09,29,22.30
2021,06,25,09,30,22.30
2021,06,25,09,31,22.30
2021,06,25,09,32,22.30
2021,06,25,09,33,22.30
2021,06,25,09,34,22.30
2021,06,25,09,35,22.30
2021,06,25,09,36,22.30
2021,06,25,09,37,22.30
2021,06,25,09,38,22.30
2021,06,25,09,39,22.30
2021,06,25,09,40,22.30
2021,06,25,09,41,22.30
2021,06,25,09,42,22.40
2021,06,25,09,43,22.40
2021,06,25,09,44,22.30
2021,06,25,09,45,22.40
2021,06,25,09,46,22.40
2021,06,25,09,47,22.30
2021,06,25,09,48,22.30
2021,06,25,09,49,22.30
2021,06,25,09,50,22.30
2021,06,25,09,51,22.30
2021,06,25,09,52,22.30
2021,06,25,09,53,22.30
2021,06,25,09,54,22.30
2021,06,25,09,55,22.30
2021,06,25,09,56,22.30
2021,06,25,09,57,22.30
2021,06,25,09,58,22.30
2021,06,25,09,59,22.30
2021,06,25,10,00,22.40
2021,06,25,10,01,22.40
2021,06,25,10,02,22.40
2021,06,25,10,03,22.40
2021,06,25,10,04,22.40
2021,06,25,10,05,22.40
2021,06,25,10,06,22.40
2021,06,25,10,07,22.40
2021,06,25,10,08,22.40
2021,06,25,10,09,22.40
2021,06,25,10,10,22.40
2021,06,25,10,11,22.40
2021,06,25,10,12,22.50
2021,06,25,10,13,22.50
2021,06,25,10,14,22.50
2021,06,25,10,15,22.50
2021,06,25,10,16,22.60
2021,06,25,10,17,22.60
2021,06,25,10,18,22.60
2021,06,25,10,19,22.60
2021,06,25,10,20,22.60
2021,06,25,10,21,22.70
2021,06,25,10,22,22.70
2021,06,25,10,23,22.70
2021,06,25,10,24,22.70
2021,06,25,10,25,22.80
2021,06,25,10,26,22.80
2021,06,25,10,27,22.80
2021,06,25,10,28,22.90
2021,06,25,10,29,22.90
2021,06,25,10,30,23.00
2021,06,25,10,31,23.00
2021,06,25,10,32,23.10
2021,06,25,10,33,23.10
2021,06,25,10,34,23.10
2021,06,25,10,35,23.10
2021,06,25,10,36,23.10
2021,06,25,10,37,23.20
2021,06,25,10,38,23.20
2021,06,25,10,39,23.20
2021,06,25,10,40,23.30
2021,06,25,10,41,23.30
2021,06,25,10,42,23.30
2021,06,25,10,43,23.30
2021,06,25,10,44,23.40
2021,06,25,10,45,23.40
2021,06,25,10,46,23.40
2021,06,25,10,47,23.50
2021,06,25,10,48,23.50
2021,06,25,10,49,23.50
2021,06,25,10,50,23.60
2021,06,25,10,51,23.60
2021,06,25,10,52,23.60
2021,06,25,10,53,23.60
2021,06,25,10,54,23.60
2021,06,25,10,55,23.70
2021,06,25,10,56,23.60
2021,06,25,10,57,23.60
2021,06,25,10,58,23.60
2021,06,25,10,59,23.60
2021,06,25,11,00,23.60
2021,06,25,11,01,23.60
2021,06,25,11,02,23.60
2021,06,25,11,03,23.70
2021,06,25,11,04,23.70
2021,06,25,11,05,23.70
2021,06,25,11,06,23.60
2021,06,25,11,07,23.60
2021,06,25,11,08,23.60
2021,06,25,11,09,23.60
2021,06,25,11,10,23.60
2021,06,25,11,11,23.60
2021,06,25,11,12,23.50
2021,06,25,11,13,23.60
2021,06,25,11,14,23.50
2021,06,25,11,15,23.60
2021,06,25,11,16,23.60
2021,06,25,11,17,23.60
2021,06,25,11,18,23.60
2021,06,25,11,19,23.70
2021,06,25,11,20,23.70
2021,06,25,11,21,23.70
2021,06,25,11,22,23.70
2021,06,25,11,23,23.70
2021,06,25,11,24,23.70
2021,06,25,11,25,23.80
2021,06,25,11,26,23.80
2021,06,25,11,27,23.80
2021,06,25,11,28,23.80
2021,06,25,11,29,23.80
2021,06,25,11,30,23.90
2021,06,25,11,31,23.90
2021,06,25,11,32,23.90
2021,06,25,11,33,23.90
2021,06,25,11,34,23.90
2021,06,25,11,35,23.90
2021,06,25,11,36,23.90
2021,06,25,11,37,24.00
2021,06,25,11,38,24.00
2021,06,25,11,39,24.10
2021,06,25,11,40,24.10
2021,06,25,11,41,24.10
2021,06,25,11,42,24.20
2021,06,25,11,43,24.20
2021,06,25,11,44,24.30
2021,06,25,11,45,24.30
2021,06,25,11,46,24.40
2021,06,25,11,47,24.40
2021,06,25,11,48,24.40
2021,06,25,11,49,24.50
2021,06,25,11,50,24.60
2021,06,25,11,51,24.60
2021,06,25,11,52,24.60
2021,06,25,11,53,24.70
2021,06,25,11,54,24.70
2021,06,25,11,55,24.70
2021,06,25,11,56,24.80
2021,06,25,11,57,24.80
2021,06,25,11,58,24.80
2021,06,25,11,59,24.90
2021,06,25,12,00,24.90
2021,06,25,12,01,24.90
2021,06,25,12,02,25.00
2021,06,25,12,03,25.00
2021,06,25,12,04,25.10
2021,06,25,12,05,25.10
2021,06,25,12,06,25.10
2021,06,25,12,07,25.20
2021,06,25,12,08,25.20
2021,06,25,12,09,25.20
2021,06,25,12,10,25.30
2021,06,25,12,11,25.30
2021,06,25,12,12,25.30
2021,06,25,12,13,25.40
2021,06,25,12,14,25.40
2021,06,25,12,15,25.40
2021,06,25,12,16,25.50
2021,06,25,12,17,25.50
2021,06,25,12,18,25.50
2021,06,25,12,19,25.60
2021,06,25,12,20,25.60
2021,06,25,12,21,25.60
2021,06,25,12,22,25.60
2021,06,25,12,23,25.70
2021,06,25,12,24,25.70
2021,06,25,12,25,25.70
2021,06,25,12,26,25.70
2021,06,25,12,27,25.80
2021,06,25,12,28,25.80
2021,06,25,12,29,25.80
2021,06,25,12,30,25.80
2021,06,25,12,31,25.90
2021,06,25,12,32,25.90
2021,06,25,12,33,26.00
2021,06,25,12,34,26.00
2021,06,25,12,35,26.10
2021,06,25,12,36,26.10
2021,06,25,12,37,26.10
2021,06,25,12,38,26.20
2021,06,25,12,39,26.20
2021,06,25,12,40,26.30
2021,06,25,12,41,26.30
2021,06,25,12,42,26.30
2021,06,25,12,43,26.40
2021,06,25,12,44,26.40
2021,06,25,12,45,26.40
2021,06,25,12,46,26.50
2021,06,25,12,47,26.50
2021,06,25,12,48,26.60
2021,06,25,12,49,26.60
2021,06,25,12,50,26.70
2021,06,25,12,51,26.70
2021,06,25,12,52,26.80
2021,06,25,12,53,26.80
2021,06,25,12,54,26.90
2021,06,25,12,55,26.90
2021,06,25,12,56,27.00
2021,06,25,12,57,27.00
2021,06,25,12,58,27.10
2021,06,25,12,59,27.10
2021,06,25,13,00,27.20
2021,06,25,13,01,27.30
2021,06,25,13,02,27.30
2021,06,25,13,03,27.40
2021,06,25,13,04,27.40
2021,06,25,13,05,27.40
2021,06,25,13,06,27.40
2021,06,25,13,07,27.50
2021,06,25,13,08,27.50
2021,06,25,13,09,27.50
2021,06,25,13,10,27.60
2021,06,25,13,11,27.60
2021,06,25,13,12,27.60
2021,06,25,13,13,27.70
2021,06,25,13,14,27.70
2021,06,25,13,15,27.70
2021,06,25,13,16,27.80
2021,06,25,13,17,27.80
2021,06,25,13,18,27.80
2021,06,25,13,19,27.90
2021,06,25,13,20,27.90
2021,06,25,13,21,27.90
2021,06,25,13,22,27.90
2021,06,25,13,23,28.00
2021,06,25,13,24,28.10
2021,06,25,13,25,28.10
2021,06,25,13,26,28.20
2021,06,25,13,27,28.30
2021,06,25,13,28,28.40
2021,06,25,13,29,28.40
2021,06,25,13,30,28.50
2021,06,25,13,31,28.60
2021,06,25,13,32,28.70
2021,06,25,13,33,28.70
2021,06,25,13,34,28.80
2021,06,25,13,35,28.90
2021,06,25,13,36,29.00
2021,06,25,13,37,29.00
2021,06,25,13,38,29.10
2021,06,25,13,39,29.20
2021,06,25,13,40,29.20
2021,06,25,13,41,29.30
2021,06,25,13,42,29.40
2021,06,25,13,43,29.40
2021,06,25,13,44,29.50
2021,06,25,13,45,29.60
2021,06,25,13,46,29.60
2021,06,25,13,47,29.70
2021,06,25,13,48,29.70
2021,06,25,13,49,29.70
2021,06,25,13,50,29.80
2021,06,25,13,51,29.80
2021,06,25,13,52,29.80
2021,06,25,13,53,29.80
2021,06,25,13,54,29.80
2021,06,25,13,55,29.80
2021,06,25,13,56,29.80
2021,06,25,13,57,29.90
2021,06,25,13,58,29.90
2021,06,25,13,59,30.00
2021,06,25,14,00,30.10
2021,06,25,14,01,30.10
2021,06,25,14,02,30.20
2021,06,25,14,03,30.30
2021,06,25,14,04,30.40
2021,06,25,14,05,30.40
2021,06,25,14,06,30.50
2021,06,25,14,07,30.60
2021,06,25,14,08,30.60
2021,06,25,14,09,30.60
2021,06,25,14,10,30.70
2021,06,25,14,11,30.70
2021,06,25,14,12,30.70
2021,06,25,14,13,30.70
2021,06,25,14,14,30.80
2021,06,25,14,15,30.80
2021,06,25,14,16,30.80
2021,06,25,14,17,30.90
2021,06,25,14,18,30.90
2021,06,25,14,19,31.00
2021,06,25,14,20,31.10
2021,06,25,14,21,31.10
2021,06,25,14,22,31.10
2021,06,25,14,23,31.10
2021,06,25,14,24,31.10
2021,06,25,14,25,31.20
2021,06,25,14,26,31.20
2021,06,25,14,27,31.30
2021,06,25,14,28,31.30
2021,06,25,14,29,31.20
2021,06,25,14,30,31.20
2021,06,25,14,31,31.10
2021,06,25,14,32,31.10
2021,06,25,14,33,31.10
2021,06,25,14,34,31.10
2021,06,25,14,35,31.10
2021,06,25,14,36,31.20
2021,06,25,14,37,31.20
2021,06,25,14,38,31.20
2021,06,25,14,39,31.20
2021,06,25,14,40,31.20
2021,06,25,14,41,31.20
2021,06,25,14,42,31.20
2021,06,25,14,43,31.20
2021,06,25,14,44,31.30
2021,06,25,14,45,31.30
2021,06,25,14,46,31.30
2021,06,25,14,47,31.30
2021,06,25,14,48,31.40
2021,06,25,14,49,31.30
2021,06,25,14,50,31.30
2021,06,25,14,51,31.30
2021,06,25,14,52,31.30
2021,06,25,14,53,31.40
2021,06,25,14,54,31.40
2021,06,25,14,55,31.40
2021,06,25,14,56,31.50
2021,06,25,14,57,31.50
2021,06,25,14,58,31.60
2021,06,25,14,59,31.50
2021,06,25,15,00,31.50
2021,06,25,15,01,31.50
2021,06,25,15,02,31.50
2021,06,25,15,03,31.50
2021,06,25,15,04,31.40
2021,06,25,15,05,31.40
2021,06,25,15,06,31.30
2021,06,25,15,07,31.30
2021,06,25,15,08,31.20
2021,06,25,15,09,31.20
2021,06,25,15,10,31.20
2021,06,25,15,11,31.20
2021,06,25,15,12,31.20
2021,06,25,15,13,31.20
2021,06,25,15,14,31.20
2021,06,25,15,15,31.20
2021,06,25,15,16,31.20
2021,06,25,15,17,31.20
2021,06,25,15,18,31.20
2021,06,25,15,19,31.10
2021,06,25,15,20,31.10
2021,06,25,15,21,31.10
2021,06,25,15,22,31.10
2021,06,25,15,23,31.10
2021,06,25,15,24,31.10
2021,06,25,15,25,31.10
2021,06,25,15,26,31.10
2021,06,25,15,27,31.10
2021,06,25,15,28,31.10
2021,06,25,15,29,31.20
2021,06,25,15,30,31.20
2021,06,25,15,31,31.20
2021,06,25,15,32,31.20
2021,06,25,15,33,31.20
2021,06,25,15,34,31.20
2021,06,25,15,35,31.20
2021,06,25,15,36,31.20
2021,06,25,15,37,31.20
2021,06,25,15,38,31.20
2021,06,25,15,39,31.10
2021,06,25,15,40,31.10
2021,06,25,15,41,31.10
2021,06,25,15,42,31.10
2021,06,25,15,43,31.10
2021,06,25,15,44,31.10
2021,06,25,15,45,31.20
2021,06,25,15,46,31.20
2021,06,25,15,47,31.30
2021,06,25,15,48,31.30
2021,06,25,15,49,31.30
2021,06,25,15,50,31.30
2021,06,25,15,51,31.30
2021,06,25,15,52,31.30
2021,06,25,15,53,31.30
2021,06,25,15,54,31.30
2021,06,25,15,55,31.30
2021,06,25,15,56,31.30
2021,06,25,15,57,31.40
2021,06,25,15,58,31.40
2021,06,25,15,59,31.40
2021,06,25,16,00,31.40
2021,06,25,16,01,31.40
2021,06,25,16,02,31.40
2021,06,25,16,03,31.40
2021,06,25,16,04,31.40
2021,06,25,16,05,31.40
2021,06,25,16,06,31.50
2021,06,25,16,07,31.50
2021,06,25,16,08,31.50
2021,06,25,16,09,31.60
2021,06,25,16,10,31.60
2021,06,25,16,11,31.60
2021,06,25,16,12,31.60
2021,06,25,16,13,31.70
2021,06,25,16,14,31.70
2021,06,25,16,15,31.70
2021,06,25,16,16,31.70
2021,06,25,16,17,31.80
2021,06,25,16,18,31.80
2021,06,25,16,19,31.80
2021,06,25,16,20,31.80
2021,06,25,16,21,31.80
2021,06,25,16,22,31.90
2021,06,25,16,23,31.90
2021,06,25,16,24,31.90
2021,06,25,16,25,31.90
2021,06,25,16,26,31.90
2021,06,25,16,27,31.90
2021,06,25,16,28,32.00
2021,06,25,16,29,32.00
2021,06,25,16,30,32.00
2021,06,25,16,31,32.00
2021,06,25,16,32,32.10
2021,06,25,16,33,32.10
2021,06,25,16,34,32.10
2021,06,25,16,35,32.10
2021,06,25,16,36,32.10
2021,06,25,16,37,32.10
2021,06,25,16,38,32.10
2021,06,25,16,39,32.10
2021,06,25,16,40,32.10
2021,06,25,16,41,32.10
2021,06,25,16,42,32.10
2021,06,25,16,43,32.10
2021,06,25,16,44,32.10
2021,06,25,16,45,32.10
2021,06,25,16,46,32.10
2021,06,25,16,47,32.10
2021,06,25,16,48,32.10
2021,06,25,16,49,32.10
2021,06,25,16,50,32.20
2021,06,25,16,51,32.20
2021,06,25,16,52,32.10
2021,06,25,16,53,32.10
2021,06,25,16,54,32.10
2021,06,25,16,55,32.00
2021,06,25,16,56,32.00
2021,06,25,16,57,32.10
2021,06,25,16,58,32.10
2021,06,25,16,59,32.10
2021,06,25,17,00,32.10
2021,06,25,17,01,32.10
2021,06,25,17,02,32.20
2021,06,25,17,03,32.20
2021,06,25,17,04,32.20
2021,06,25,17,05,32.30
2021,06,25,17,06,32.30
2021,06,25,17,07,32.40
2021,06,25,17,08,32.40
2021,06,25,17,09,32.40
2021,06,25,17,10,32.50
2021,06,25,17,11,32.50
2021,06,25,17,12,32.60
2021,06,25,17,13,32.60
2021,06,25,17,14,32.60
2021,06,25,17,15,32.70
2021,06,25,17,16,32.70
2021,06,25,17,17,32.70
2021,06,25,17,18,32.70
2021,06,25,17,19,32.70